Mesa, AZ

9:58 PM MST on February 26, 2017 (GMT -0700)
Phoenix-Mesa Gateway Airport

Weather History for KIWA - May, 2013

Change the Weather History Date:

Saturday, May 25, 2013

  Actual Average Record
Temperature  
Mean Temperature 81 °F -  
Max Temperature 98 °F 95 °F 105 °F (2001)
Min Temperature 64 °F 67 °F 53 °F (2008)
Cooling Degree Days 16    
Growing Degree Days 31 (Base 50)    
Moisture  
Dew Point 24 °F    
Average Humidity 15    
Maximum Humidity 28    
Minimum Humidity 5    
Precipitation  
Precipitation 0.00 in - - ()
Sea Level Pressure  
Sea Level Pressure 29.89 in    
Wind  
Wind Speed 6 mph (South)    
Max Wind Speed 10 mph    
Max Gust Speed 20 mph    
Visibility 12 miles    
Events      
Averages and records for this station are not official NWS values.
T = Trace of Precipitation, MM = Missing Value Source: NWS Daily Summary

Daily Weather History Graph

Daily Weather History Graph

Search for Another Location

Airport or City:

Trip Planner

Search our weather history database for the weather conditions in past years. The results will help you decide how hot, cold, wet, or windy it might be!

Date:

Astronomy

May. 25, 2013 Rise Set
Actual Time 5:20 AM MST 7:26 PM MST
Civil Twilight 4:52 AM MST 7:55 PM MST
Nautical Twilight 4:18 AM MST 8:29 PM MST
Astronomical Twilight 3:41 AM MST 9:06 PM MST
Moon 8:19 PM MST (5/25) 5:50 AM MST (5/25)
Length of Visible Light 15h 02m
Length of Day
14h 06m
Waxing Gibbous, 99% of the Moon is Illuminated
May 25
Waxing Gibbous
May 31
Last Quarter
Jun 8
New
Jun 16
First Quarter
Jun 23
Full

Hourly Weather History & Observations

Time (MST) Temp. Dew Point Humidity Pressure Visibility Wind Dir Wind Speed Gust Speed Precip Events Conditions
12:15 AM 71.6 °F 32.0 °F 23% 29.88 in 10.0 mi SSE 8.1 mph - N/A   Clear
12:35 AM 71.6 °F 32.0 °F 23% 29.88 in 10.0 mi SE 8.1 mph - N/A   Clear
12:55 AM 69.8 °F 30.2 °F 23% 29.88 in 10.0 mi SSE 9.2 mph - N/A   Clear
1:15 AM 69.8 °F 30.2 °F 23% 29.88 in 10.0 mi SE 6.9 mph - N/A   Clear
1:35 AM 69.8 °F 32.0 °F 25% 29.88 in 10.0 mi SE 5.8 mph - N/A   Clear
1:55 AM 68.0 °F 32.0 °F 26% 29.88 in 10.0 mi SE 6.9 mph - N/A   Clear
2:15 AM 66.2 °F 32.0 °F 28% 29.88 in 10.0 mi SE 4.6 mph - N/A   Clear
2:35 AM 68.0 °F 32.0 °F 26% 29.88 in 10.0 mi SE 6.9 mph - N/A   Clear
2:55 AM 68.0 °F 28.4 °F 23% 29.88 in 10.0 mi ESE 4.6 mph - N/A   Clear
3:15 AM 68.0 °F 28.4 °F 23% 29.88 in 10.0 mi ESE 5.8 mph - N/A   Clear
3:35 AM 66.2 °F 28.4 °F 24% 29.88 in 10.0 mi ESE 3.5 mph - N/A   Clear
3:55 AM 64.4 °F 26.6 °F 24% 29.88 in 10.0 mi East 5.8 mph - N/A   Clear
4:15 AM 64.4 °F 24.8 °F 22% 29.90 in 10.0 mi ESE 4.6 mph - N/A   Clear
4:35 AM 64.4 °F 23.0 °F 21% 29.90 in 10.0 mi Calm Calm - N/A   Clear
4:47 AM 66.2 °F 21.2 °F 18% 29.90 in 20.0 mi South 4.6 mph - N/A   Clear
4:55 AM 64.4 °F 23.0 °F 21% 29.91 in 10.0 mi Calm Calm - N/A   Clear
5:15 AM 64.4 °F 21.2 °F 19% 29.91 in 10.0 mi ESE 6.9 mph - N/A   Clear
5:47 AM 66.2 °F 23.0 °F 19% 29.92 in 45.0 mi ESE 5.8 mph - N/A   Partly Cloudy
6:50 AM 73.4 °F 24.8 °F 16% 29.94 in 45.0 mi ESE 5.8 mph - N/A   Partly Cloudy
7:50 AM 78.8 °F 24.8 °F 14% 29.95 in 45.0 mi SE 5.8 mph - N/A   Partly Cloudy
8:47 AM 82.4 °F 21.2 °F 10% 29.96 in 35.0 mi SSE 4.6 mph - N/A   Partly Cloudy
10:47 AM 86.0 °F 21.2 °F 9% 29.96 in 30.0 mi South 6.9 mph - N/A   Scattered Clouds
11:47 AM 87.8 °F 23.0 °F 9% 29.94 in 30.0 mi SW 6.9 mph - N/A   Scattered Clouds
12:47 PM 93.2 °F 19.4 °F 7% 29.93 in 30.0 mi WSW 6.9 mph - N/A   Scattered Clouds
1:47 PM 93.2 °F 12.2 °F 5% 29.91 in 30.0 mi SW 8.1 mph - N/A   Scattered Clouds
2:47 PM 93.2 °F 17.6 °F 6% 29.89 in 30.0 mi SW 4.6 mph - N/A   Partly Cloudy
3:47 PM 95.0 °F 15.8 °F 6% 29.86 in 30.0 mi Variable 4.6 mph - N/A   Partly Cloudy
4:47 PM 98.6 °F 19.4 °F 6% 29.84 in 30.0 mi SW 9.2 mph 19.6 mph N/A   Partly Cloudy
5:47 PM 96.8 °F 21.2 °F 7% 29.83 in 30.0 mi WNW 10.4 mph 16.1 mph N/A   Partly Cloudy
6:53 PM 93.2 °F 23.0 °F 8% 29.83 in 30.0 mi NW 9.2 mph - N/A   Partly Cloudy
7:47 PM 89.6 °F 21.2 °F 8% 29.84 in 20.0 mi NNW 5.8 mph - N/A   Partly Cloudy
7:55 PM 86.0 °F 23.0 °F 10% 29.84 in 10.0 mi NW 4.6 mph - N/A   Clear
8:15 PM 84.2 °F 23.0 °F 11% 29.85 in 10.0 mi NW 6.9 mph - N/A   Clear
8:35 PM 86.0 °F 24.8 °F 11% 29.86 in 10.0 mi WNW 9.2 mph - N/A   Clear
8:52 PM 87.8 °F 21.2 °F 9% 29.86 in 20.0 mi West 8.1 mph - N/A   Partly Cloudy
8:55 PM 86.0 °F 21.2 °F 9% 29.86 in 10.0 mi WNW 8.1 mph - N/A   Clear
9:15 PM 84.2 °F 21.2 °F 10% 29.87 in 10.0 mi WNW 4.6 mph - N/A   Clear
9:35 PM 82.4 °F 21.2 °F 10% 29.88 in 10.0 mi WNW 3.5 mph - N/A   Clear
9:47 PM 84.2 °F 19.4 °F 9% 29.88 in 20.0 mi WNW 5.8 mph - N/A   Partly Cloudy
9:55 PM 82.4 °F 21.2 °F 10% 29.89 in 10.0 mi NW 4.6 mph - N/A   Clear
10:15 PM 80.6 °F 21.2 °F 11% 29.89 in 10.0 mi NW 3.5 mph - N/A   Clear
10:35 PM 80.6 °F 21.2 °F 11% 29.89 in 10.0 mi Calm Calm - N/A   Clear
10:54 PM 78.8 °F 21.2 °F 12% 29.89 in 20.0 mi Calm Calm - N/A   Partly Cloudy
10:55 PM 77.0 °F 23.0 °F 13% 29.90 in 10.0 mi Calm Calm - N/A   Clear
11:15 PM 71.6 °F 26.6 °F 19% 29.90 in 10.0 mi South 3.5 mph - N/A   Clear
11:35 PM 71.6 °F 28.4 °F 20% 29.90 in 10.0 mi ESE 4.6 mph - N/A   Clear
11:47 PM 73.4 °F 28.4 °F 19% 29.90 in 20.0 mi ESE 4.6 mph - N/A   Partly Cloudy
11:55 PM 71.6 °F 26.6 °F 19% 29.90 in 10.0 mi SE 4.6 mph - N/A   Clear